Location: Laura�t
(43.9341°N, 0.2497°E)
Time: 08:57:01
(UTC+00:00)

SL-8 Rocket - Pass Details

Date: 03 March 2021
Orbit: 957 x 990 km, 82.9° (Epoch: 19 April)

Event Time Altitude Azimuth Distance (km) Brightness Sun altitude
Rises 19:49:41 0° 190° (S) 3,669 7.0 -22.2°
Reaches altitude 10° 19:52:12 10° 192° (SSW) 2,721 6.3 -22.6°
Maximum altitude 19:58:26 77° 278° (W) 1,002 4.1 -23.7°
Drops below altitude 10° 20:04:40 10° 5° (N) 2,716 6.4 -24.8°
Sets 20:07:11 0° 7° (N) 3,662 7.1 -25.2°
